Timeline UpdatesTrip UpdatesNews PostsPvt Posts♥♥Travel TipsAdmin PostsConv PostsFollowed PostsChat RequestsBlog PostsPNR Posts

Disclaimer
Search
 
 
Sun Oct 26, 2014 15:01:05 ISTHomeTrainsΣChainsAtlasPNRForumGalleryNewsFAQTripsMembersLoginFeedback
No Recent News for this Train
Other Trains in the News **new
Latest...
running with se1
Wed Aug 27, 2014 (09:44AM)
⇐ Return Journey: Train# 18237

18238/Chhattisgarh Express

Time-Table HAS CHANGED.
Oct 15 (6:58PM)
Change Departure Station:
Change Arrival Station:
Post a Train Travel TipPost a Train Travel Tip **new
Post a Comment/Question/Picture/VideoPost a Comment/Question/Picture/Video
Inaugural Run
Sat Jan 01, 1977
Pantry/Catering
✓ Pantry Car Avbl
✓ Catering Avbl
Loco/Rake Reversals
NGP/Nagpur Junction (8);
RSA - Rake Sharing
0
Rake/Coach Composition
LOCO-SLR-GS-EXT-S1-S2-S3-S4-S5-S6-S7-S8-S9-S10-PC-S11-S12-B3-B2-B1-A1-HA1-GS-SLR-SP1
Loco
ASR - NZM ---- TKD WDP4 NZM - NGP --- AJNI...
Read more...
WAP7 NGP - BSP --- ET WAP4 Author: Mahesh Gupta Entry# 295348
News    PNR    Forum    Time-Table    Availability    Fare Chart    Map    Arr/Dep History    Trips    Gallery    ΣChains    X/O    Timeline    
Travel Time: 6h 24m    11 halts    Distance: 283 km    Avg Speed: 44 km/hr
Type: Mail/Express
Zone: SECR/South East Central
Departs @ 05:56 (Avg 32m late)
Platform# 4
SMTWTFS
Gondia Junction/G 
Arrives @ 12:20 (Avg 10m late)
Platform# 8
SMTWTFS
Bilaspur Junction/BSP 

11 halts. 38 intermediate Stations between Gondia Junction and Bilaspur Junction

Show ALL intermediate Stations  Show Old Time-Table

#TrkCodeStation NameX/OArrivesAvgDepartsAvgHaltPFDay#KmSpeedElevZoneAddress
1/==/ASRAmritsar Junction (5)  -16:15+621-1728.477233mNRAmritsar 143002, Punjab
2/==/JNLJandiala (2)  16:30+1616:32+162m21-1709.280238mNRJandiala, Punjab
3/==/BEASBeas Junction (2)  16:50+1816:52+182m21-1685.461238mNRBeas, Punjab
4/==/KREKartarpur (2)X  17:13+1717:15+182m11-1664.068236mNRKartarpur, Punjab
5/==/JUCJalandhar City Junction (5)X  17:28+2017:35 17:34+257 6m21-1649.329239mNRJalandhar 144001, Punjab
6/==/JRCJalandhar Cantt. Junction (3)X  17:48 17:44+2317:50 17:46+312m21-1644.565239mNRNear Rama Mandi, Punjab
7/==/PGWPhagwara Junction (3)  18:05 18:01+3218:07 18:03+322m11-1628.245245mNRPhagwara, Punjab
8/==/GRYGoraya (2)XO  18:21 18:16+3118:23 18:18+342m11-1618.327240mNRGoraya, Punjab
9/==/PHRPhillaur Junction (3)X  18:46+1918:48+192m11-1605.646246mNRPhillaur, Punjab
10/==/LDHLudhiana Junction (7)X  19:05+2019:15+2210m11-1592.522246mNRLudhiana 141001, Punjab
11/==/SNLSanehwal (3)X  19:56+319:58+72m21-1577.355260mNRLudhiana, Punjab
12/==/DOADoraha (2)  20:07 20:06+1220:08+131 2m21-1570.057261mNRDoraha, Punjab
13/==/CHAChawapail (2)X  20:18+1520:20+152m21-1560.666267mNRLudhiana, Punjab
14/==/KNNKhanna (3)  20:30+1620:32+162m21-1549.754269mNRNH 1, Punjab
15/==/GVGMandi Gobindgarh (2)  20:41+1820:43+182m21-1541.649268mNRMandi Gobindgarh, Punjab
16/==/SIRSirhind Junction (3)X  20:55+1820:57+182m21-1531.865271mNRSirhind, Punjab
17/==/RPJRajpura Junction (3)X  21:20+1921:22+192m21-1506.956272mNRNH-1, Punjab
18/==/UBCAmbala City (3)X  21:45 21:44+1721:46+171 2m11-1486.521273mNRNH-1, Haryana
19/==/UMBAmbala Cantt. Junction (7)X  22:08+1422:20+1212m21-1478.968278mNRAmbala 133001, Haryana
20/==/RAABarara (2)  22:42+1622:44+162m11-1454.171279mNRBarara, Haryana
21/==/JUDWJagadhri Workshop (2)  23:02+1923:04+192m11-1432.943280mNRRailway Workshop Road, Haryana
22/==/JUDYamunanagar-Jagadhri (3)  23:11+1923:13+192m21-1427.935275mNRYamunanagar, Haryana
23/==/SRESaharanpur Junction (6)X  00:05+300:15+610m32-1397.768276mNRSaharanpur, Uttar Pradesh
24%--%DBDDeoband (2)  00:45+1900:47+202m12-1363.576258mNRSaharanpur, Uttar Pradesh
25%--%MOZMuzaffarnagar (3)  01:06+2201:08+222m12-1339.578247mNRMuzaffarNagar, Uttar Pradesh
26%--%KATKhatauli (2)  01:34 01:25+2301:36 01:27+272m--2-1317.377239mNRKhatauli, Uttar Pradesh
27%--%DRLADaurala (1)  01:56 01:41+3101:58 01:43+312m12-1299.451232mNRMeerut, Uttar Pradesh
28%--%MUTMeerut Cantt. (2)  02:09 01:56+3402:11 01:58+342m12-1288.229230mNRMeerut, Uttar Pradesh
29%--%MTCMeerut City Junction (6)  02:20 02:07+3402:25 02:12+335m22-1283.969229mNRMeerut, Uttar Pradesh
30%==%MDNRModinagar (2)  02:39 02:29+3402:41 02:31+342m--2-1264.560221mNRGhaziabad, Uttar Pradesh
31%==%GUHGuldhar (2)  02:55 02:49+3302:57 02:51+332m--2-1246.416224mNRGhaziabad, Uttar Pradesh
32%==%GZBGhaziabad Junction (6)  03:28+1403:30+152m32-1236.745217mNRGhaziabad, Uttar Pradesh
33/==/SBBSahibabad Junction (5)  03:40 03:39+2003:41+211 2m--2-1230.033209mNRGhaziabad, Uttar Pradesh
34/==/NZMDelhi Hazrat Nizamuddin (7)X04:15 04:10+1904:40+1725 30m22-1214.060209mNRNew Delhi 110013, Delhi NCT
35/==/BVHBallabgarh (5)X  05:09+1705:11+172m42-1185.142203mNRFaridabad, Haryana
36/==/PWLPalwal (8)X  05:41+905:43+122m42-1163.985200mNRPalwal, Haryana
37/==/KSVKosi Kalan (3)X  06:13+1906:15+192m22-1121.556189mNCRKosi Kalan, Uttar Pradesh
38/==/CHJChata (4)X  06:26+2006:28+212m12-1111.269 NCRChhata, Uttar Pradesh
39/==/MTJMathura Junction (10)X  06:55+2407:00+235m12-1080.062179mNCRMathura, Uttar Pradesh
40/==/RKMRaja Ki Mandi (4)XO  07:48+3007:50+302m22-1030.36170mNCRAgra, Uttar Pradesh
41/==/AGCAgra Cantt. (6)X  08:30+1208:40 08:38+1710 8m12-1026.375174mNCRAgra, Uttar Pradesh
42/==/DHODholpur Junction (3)X  09:20+2309:22+402m22-973.762177mNCRDholpur, Rajasthan
43/==/MRAMorena (3)X  09:45 09:48+4709:50+525 2m12-946.972176mNCRMorena, Madhya Pradesh
44/==/BAOBanmorXO  10:06+5510:08+582m--2-927.631189mNCRGwalior, Madhya Pradesh
45/==/GWLGwalior Junction (4)XO  10:45+4910:50+505m12-908.363214mNCRGwalior, Madhya Pradesh
46/==/DBADabra (3)  11:30+5211:32+522m32-866.063 NCRDabra(District-Gwalior), Madhya Pradesh
47/==/SORSonagir (2)O  11:50+5211:52+522m--2-847.230211mNCRDatia, Madhya Pradesh
48/==/DAADatia (2)X  12:15+4612:17+472m--2-835.628264mNCRDatia, Madhya Pradesh
49/==/JHSJhansi Junction (7)  13:10+2413:20+2810m--2-810.667259mNCRJhansi, Uttar Pradesh
50/==/BABBabina (3)X  13:45 13:43+3513:47 13:45+362m12-785.152285mNCRBabina, Uttar Pradesh
51/==/BZYBasai (3)X  13:59+3614:01+382m12-773.059287mNCR07522289600(Gate ManMob. - 9452701575), Madhya Pradesh
52/==/TBTTalbahat (4)X  14:17 14:14+3814:19 14:16+412m22-760.2100314mNCRKhaniyadhana Station Rd, Madhya Pradesh
53/==/LARLalitpur (3)  14:48 14:40+4914:50 14:42+512m12-720.391373mNCRLalitpur, Uttar Pradesh
54/==/JLNJakhalaun (3) new halt!!XO  14:53+5614:55+572m--2-703.546394mNCRLalitpur(05176-272220), Uttar Pradesh
55/==/DUADhaura (3)XO  15:10+5515:12+542m--2-692.028407mNCRDhaura Tanda, Madhya Pradesh
56/==/BINABina Junction (5)X  16:25+2716:30+285m22-657.469414mWCRJn Pt - KATNI/GUNA/ BPL/JHS, Madhya Pradesh
57/==/MABAMandi Bamora (3)XO  16:45+3516:47+352m22-640.178413mWCRState Highway 14, Madhya Pradesh
58/==/BAQGanj Basoda (4)  17:09+3617:11+362m22-611.684 WCRVidisha, Madhya Pradesh
59/==/BHSVidisha (3)X  17:39+4117:41+422m22-572.354 WCRVidisha, Madhya Pradesh
60/==/BPLBhopal Junction (6)X  18:40+3718:45+395m12-518.838497mWCRBhopal, Madhya Pradesh
61/==/HBJBhopal HabibGanj (5)  18:55+4318:57+442m--2-512.543496mWCRHabibGanj, Madhya Pradesh
62/==/HBDHoshangabad (2)XO  20:30+4120:32+362m22-445.133308mWCRHoshangabad, Madhya Pradesh
63/==/ETItarsi Junction (7)X  21:10 21:05+2921:15+305 10m32-427.168329mWCRItarsi 461111, Madhya Pradesh
64/==/GDYAGhoradongri (3)X  22:17+4522:19+452m--2-356.749 CRBetul, Madhya Pradesh
65/==/BZUBetul (3)  23:02 23:03+5023:05+503 2m--2-320.846644mCRBetul, Madhya Pradesh
66/==/AMLAAmla Junction (5)  23:35+4300:10+3035m12-297.898733mCRAmla Distt. Betul, Madhya Pradesh
67/==/MTYMultai (2)  00:24+3400:26+352m--3-275.058762mCRMultai, Madhya Pradesh
68/==/PARPandhurna (2)  01:08+4201:10+422m13-234.285481mCRDistt: Chhindwara, Madhya Pradesh
69/==/NRKRNarkher Junction (4)X  01:23+4601:25+462m--3-215.966411mCRDistrict Nagpur, Maharashtra
70/==/KATLKatol (2)X  01:48+4301:50+442m--3-190.737 CRKatol. District Nagpur, Maharashtra
71/==/NGPNagpur Junction (8)03:30+1103:55+1325m63-129.948314mCRNagpur 440001, Maharashtra
72/==/KPKamptee (3)X  04:13+2204:15+262m--3-115.596290mSECRKamptee, Maharashtra
73/==/BRDBhandara Road (3)  04:45+3204:47+332m23-67.677266mSECRState Highway 252 Bhandara District, Maharashtra
74/==/TMRTumsar Road (5)  05:01+3305:03+332m--3-49.781267mSECRDistt. Bhandara, Maharashtra
75/==/TROTirora (3)  05:18+3605:20+372m--3-29.357282mSECRDist Gondia, Maharashtra
76/==/GGondia Junction (7)»X  05:51+3305:56+325m430.098316mSECRGondia 441601, Maharashtra
77/==/AGNAmgaon (2)  06:10+4006:12+402m--322.880317mSECRGondia, Maharashtra
78/==/SKSSalekasa (2)  06:23+4106:25+422m--337.556312mSECRRajnandgaon, Chhattisgarh
79/==/DGGDongargarh (2)XO  07:03+4307:05+442m--373.363 SECRDongargarh, Chhattisgarh
80/==/RJNRaj Nandgaon (3)X  07:35+3807:40+365m--3104.830313mSECRRajnandgaon, Chhattisgarh
81/==/DURGDurg Junction (6)X  08:40+1108:55+1215m--3135.360299mSECRPh: 91-788-2322059, Chhattisgarh
82/==/BPHBBhilai Power House (3)X  09:04+4909:06+492m--3144.243312mSECRBhilai, Chhattisgarh
83/==/RRaipur Junction (6)  09:45+1509:55+1910m53172.269297mSECRRaipur, Chhattisgarh
84/==/TLDTilda (3)X  10:28+3010:30+312m--3210.449 SECRBanjari Rd, Chhattisgarh
85/==/HNHathbandhX  10:43+2810:45+292m--3221.171283mSECRRaipur, Chhattisgarh
86/==/BYTBhatapara (4)X  10:58+2911:00+292m--3236.561270mSECRBanjari Road, Chhattisgarh
87/==/BYLBelhaX  11:30+2611:32+272m--3267.119269mSECRCollege Road, Chhattisgarh
88/==/BSPBilaspur Junction (8)•  12:20+10-83282.6-271mSECRBilaspur, Chhattisgarh
Scroll to Top
Scroll to Bottom